• In Netherlands
  • List of Countries
  • For 7 days
  • Water Temperature
  • Satellite Maps
  • Weather Map
  • Weather Widgets
  • user-avatar
    Login

    Hourly Weather Durres

    Today, 16 January, Monday

    Time Temperature Precipitation Wind Pressure Humidity
    00:00 -1°C° 0 mm 7 mps 757 mmHg 78%
    01:00 0°C° 0 mm 7 mps 756 mmHg 77%
    02:00 0°C° 0.4 mm 7 mps 756 mmHg 78%
    03:00 +1°C° 0.4 mm 6 mps 756 mmHg 79%
    04:00 +1°C° 0.4 mm 5 mps 756 mmHg 81%
    05:00 +1°C° 0.8 mm 6 mps 755 mmHg 83%
    06:00 0°C° 0.8 mm 7 mps 755 mmHg 84%
    07:00 +1°C° 0 mm 8 mps 755 mmHg 86%
    08:00 +2°C° 0.3 mm 8 mps 755 mmHg 85%
    09:00 +2°C° 0.3 mm 8 mps 755 mmHg 83%
    10:00 +4°C° 0.3 mm 8 mps 755 mmHg 82%
    11:00 +4°C° 0.2 mm 7 mps 755 mmHg 82%
    12:00 +5°C° 0.2 mm 7 mps 754 mmHg 82%
    13:00 +5°C° 0.2 mm 7 mps 754 mmHg 82%
    14:00 +5°C° 0.7 mm 7 mps 754 mmHg 83%
    15:00 +4°C° 0.7 mm 7 mps 753 mmHg 84%
    16:00 +4°C° 0.7 mm 7 mps 753 mmHg 85%
    17:00 +4°C° 0.8 mm 7 mps 753 mmHg 85%
    18:00 +3°C° 0.8 mm 7 mps 753 mmHg 86%
    19:00 +2°C° 0.8 mm 8 mps 753 mmHg 86%
    20:00 +2°C° 0.5 mm 8 mps 753 mmHg 86%
    21:00 +2°C° 0.5 mm 8 mps 753 mmHg 85%
    22:00 +2°C° 0.5 mm 8 mps 753 mmHg 85%
    23:00 +2°C° 0.3 mm 8 mps 753 mmHg 85%

    Tomorrow, 17 January, Tuesday

    Time Temperature Precipitation Wind Pressure Humidity
    00:00 +3°C° 0.3 mm 7 mps 754 mmHg 85%
    01:00 +3°C° 0.3 mm 7 mps 754 mmHg 86%
    02:00 +3°C° 0.4 mm 7 mps 754 mmHg 86%
    03:00 +3°C° 0.4 mm 7 mps 754 mmHg 86%
    04:00 +3°C° 0.4 mm 7 mps 754 mmHg 86%
    05:00 +2°C° 0.4 mm 6 mps 754 mmHg 86%
    06:00 +2°C° 0.4 mm 6 mps 755 mmHg 86%
    07:00 +2°C° 0.4 mm 6 mps 755 mmHg 86%
    08:00 +3°C° 0.1 mm 6 mps 755 mmHg 84%
    09:00 +4°C° 0.1 mm 6 mps 756 mmHg 82%
    10:00 +5°C° 0.1 mm 6 mps 756 mmHg 80%
    11:00 +7°C° 0.1 mm 6 mps 756 mmHg 79%
    12:00 +7°C° 0.1 mm 6 mps 756 mmHg 79%
    13:00 +8°C° 0.1 mm 6 mps 756 mmHg 79%
    14:00 +7°C° 0.1 mm 6 mps 756 mmHg 80%
    15:00 +7°C° 0.1 mm 6 mps 756 mmHg 82%
    16:00 +5°C° 0.1 mm 6 mps 756 mmHg 83%
    17:00 +5°C° 0.1 mm 6 mps 756 mmHg 83%
    18:00 +4°C° 0.1 mm 6 mps 756 mmHg 83%
    19:00 +3°C° 0.1 mm 7 mps 756 mmHg 83%
    20:00 +3°C° 0.1 mm 7 mps 756 mmHg 82%
    21:00 +3°C° 0.1 mm 7 mps 757 mmHg 82%
    22:00 +2°C° 0.1 mm 8 mps 757 mmHg 82%
    23:00 +2°C° 0 mm 8 mps 757 mmHg 81%

    Day after tomorrow, 18 January, Wednesday

    Time Temperature Precipitation Wind Pressure Humidity
    00:00 +2°C° 0 mm 8 mps 757 mmHg 81%
    01:00 +2°C° 0 mm 8 mps 757 mmHg 81%
    02:00 +2°C° 0.3 mm 8 mps 757 mmHg 81%
    03:00 +2°C° 0.3 mm 8 mps 757 mmHg 81%
    04:00 +2°C° 0.3 mm 8 mps 757 mmHg 81%
    05:00 +2°C° 0.2 mm 8 mps 758 mmHg 81%
    06:00 +2°C° 0.2 mm 8 mps 758 mmHg 81%
    07:00 +2°C° 0.2 mm 8 mps 759 mmHg 81%
    08:00 +4°C° 0.2 mm 8 mps 759 mmHg 78%
    09:00 +5°C° 0.2 mm 7 mps 759 mmHg 76%
    10:00 +5°C° 0.2 mm 7 mps 760 mmHg 74%
    11:00 +6°C° 0.2 mm 7 mps 759 mmHg 73%
    12:00 +6°C° 0.2 mm 7 mps 759 mmHg 73%
    13:00 +8°C° 0.2 mm 6 mps 759 mmHg 72%
    14:00 +6°C° 0.1 mm 7 mps 759 mmHg 73%
    15:00 +6°C° 0.1 mm 8 mps 759 mmHg 74%
    16:00 +5°C° 0.1 mm 10 mps 759 mmHg 75%
    17:00 +5°C° 0.5 mm 9 mps 759 mmHg 77%
    18:00 +3°C° 0.5 mm 9 mps 759 mmHg 78%
    19:00 +3°C° 0.5 mm 9 mps 759 mmHg 79%
    20:00 +3°C° 0.5 mm 9 mps 760 mmHg 80%
    21:00 +2°C° 0.5 mm 9 mps 761 mmHg 81%
    22:00 +2°C° 0.5 mm 8 mps 761 mmHg 82%
    23:00 +2°C° 0.1 mm 8 mps 761 mmHg 82%

    19 January, Thursday

    Time Temperature Precipitation Wind Pressure Humidity
    00:00 +3°C° 0.1 mm 7 mps 762 mmHg 82%
    01:00 +3°C° 0.1 mm 7 mps 762 mmHg 82%
    02:00 +3°C° 0 mm 7 mps 762 mmHg 81%
    03:00 +2°C° 0 mm 7 mps 762 mmHg 81%
    04:00 +2°C° 0 mm 7 mps 762 mmHg 81%
    05:00 +2°C° 0 mm 7 mps 763 mmHg 81%
    06:00 +2°C° 0 mm 7 mps 763 mmHg 81%
    07:00 +2°C° 0 mm 7 mps 763 mmHg 81%
    08:00 +3°C° 0 mm 7 mps 763 mmHg 78%
    09:00 +4°C° 0 mm 7 mps 764 mmHg 75%
    10:00 +5°C° 0 mm 7 mps 764 mmHg 72%
    11:00 +5°C° 0 mm 7 mps 764 mmHg 72%
    12:00 +7°C° 0 mm 6 mps 764 mmHg 72%
    13:00 +7°C° 0 mm 6 mps 764 mmHg 72%
    14:00 +7°C° 0.2 mm 6 mps 764 mmHg 74%
    15:00 +5°C° 0.2 mm 6 mps 764 mmHg 76%
    16:00 +5°C° 0.2 mm 5 mps 764 mmHg 78%
    17:00 +5°C° 0.3 mm 5 mps 765 mmHg 79%
    18:00 +3°C° 0.3 mm 5 mps 765 mmHg 80%
    19:00 +3°C° 0.3 mm 5 mps 766 mmHg 81%
    20:00 +3°C° 0.2 mm 6 mps 766 mmHg 81%
    21:00 +2°C° 0.2 mm 6 mps 767 mmHg 81%
    22:00 +2°C° 0.2 mm 6 mps 767 mmHg 81%
    23:00 +2°C° 0.1 mm 6 mps 768 mmHg 82%

    20 January, Friday

    Time Temperature Precipitation Wind Pressure Humidity
    00:00 +2°C° 0.1 mm 5 mps 768 mmHg 82%
    01:00 +1°C° 0.1 mm 5 mps 768 mmHg 82%
    02:00 +1°C° 0 mm 5 mps 768 mmHg 82%
    03:00 +1°C° 0 mm 5 mps 768 mmHg 82%
    04:00 +1°C° 0 mm 5 mps 768 mmHg 81%
    05:00 +1°C° 0 mm 5 mps 768 mmHg 81%
    06:00 +1°C° 0 mm 5 mps 769 mmHg 81%
    07:00 0°C° 0 mm 5 mps 769 mmHg 81%
    08:00 +3°C° 0 mm 4 mps 769 mmHg 78%
    09:00 +4°C° 0 mm 4 mps 769 mmHg 74%
    10:00 +6°C° 0 mm 4 mps 769 mmHg 71%
    11:00 +7°C° 0 mm 4 mps 769 mmHg 70%
    12:00 +8°C° 0 mm 4 mps 769 mmHg 68%
    13:00 +10°C° 0 mm 3 mps 768 mmHg 67%
    14:00 +9°C° 0.1 mm 3 mps 768 mmHg 70%
    15:00 +8°C° 0.1 mm 3 mps 768 mmHg 74%
    16:00 +7°C° 0.1 mm 3 mps 768 mmHg 77%
    17:00 +7°C° 0.1 mm 3 mps 769 mmHg 78%
    18:00 +5°C° 0.1 mm 4 mps 769 mmHg 79%
    19:00 +4°C° 0.1 mm 4 mps 769 mmHg 81%
    20:00 +4°C° 0 mm 4 mps 769 mmHg 80%
    21:00 +3°C° 0 mm 4 mps 770 mmHg 80%
    22:00 +3°C° 0 mm 4 mps 770 mmHg 80%
    23:00 +3°C° 0 mm 4 mps 770 mmHg 80%

    21 January, Saturday

    Time Temperature Precipitation Wind Pressure Humidity
    00:00 +3°C° 0 mm 4 mps 770 mmHg 80%
    01:00 +3°C° 0 mm 4 mps 769 mmHg 80%
    02:00 +2°C° 0 mm 5 mps 769 mmHg 80%
    03:00 +1°C° 0 mm 5 mps 769 mmHg 80%
    04:00 +1°C° 0 mm 5 mps 769 mmHg 80%
    05:00 +1°C° 0 mm 5 mps 769 mmHg 80%
    06:00 +1°C° 0 mm 5 mps 769 mmHg 79%
    07:00 +1°C° 0 mm 5 mps 769 mmHg 79%
    08:00 +3°C° 0 mm 5 mps 769 mmHg 75%
    09:00 +5°C° 0 mm 4 mps 769 mmHg 72%
    10:00 +7°C° 0 mm 4 mps 769 mmHg 69%
    11:00 +8°C° 0.1 mm 4 mps 768 mmHg 68%
    12:00 +8°C° 0.1 mm 4 mps 768 mmHg 67%
    13:00 +10°C° 0.1 mm 4 mps 767 mmHg 66%
    14:00 +10°C° 0 mm 4 mps 767 mmHg 69%
    15:00 +8°C° 0 mm 4 mps 767 mmHg 72%
    16:00 +7°C° 0 mm 5 mps 766 mmHg 75%
    17:00 +6°C° 0 mm 5 mps 766 mmHg 77%
    18:00 +5°C° 0 mm 5 mps 766 mmHg 78%
    19:00 +3°C° 0 mm 6 mps 766 mmHg 79%
    20:00 +3°C° 0 mm 6 mps 766 mmHg 79%
    21:00 +3°C° 0 mm 6 mps 766 mmHg 78%
    22:00 +3°C° 0 mm 6 mps 766 mmHg 78%
    23:00 +3°C° 0 mm 6 mps 766 mmHg 77%
    Show more